[TLELIST] Archives

 

[list_settings.list_name] Current TLEs

September 25th 2013 PST

HST 1 20580U 90037B 13267.48579015 .00001491 00000-0 93370-4 0 3380 2 20580 028.4709 341.7167 0003161 335.5284 132.9111 15.03943338 84668 ISS (ZARYA) 1 25544U 98067A 13268.36161734 .00008563 00000-0 15522-3 0 6718 2 25544 051.6507 331.9147 0003240 082.5496 009.4358 15.50480741850240 CXO 1 25867U 99040B 13271.06693731 .00000324 00000-0 00000+0 0 9559 2 25867 075.9907 333.6833 8454505 276.6684 000.3032 00.37799533 10922 ____________________________________________________________________ These 2-Line ...Continue Reading

[list_settings.list_name] Current TLEs

September 24th 2013 PST

HST 1 20580U 90037B 13265.69797480 .00001366 00000-0 84528-4 0 3374 2 20580 028.4710 353.4416 0003085 316.6558 173.1324 15.03937780 84393 ISS (ZARYA) 1 25544U 98067A 13267.39220317 .00008652 00000-0 15685-3 0 6644 2 25544 051.6506 336.7214 0003199 079.4170 358.0161 15.50463526850094 CXO 1 25867U 99040B 13268.42218902 .00000190 00000-0 00000+0 0 9548 2 25867 075.9700 333.8475 8457764 276.6937 000.2334 00.37802401 10910 ____________________________________________________________________ These 2-Line ...Continue Reading

[list_settings.list_name] Current TLEs

September 23rd 2013 PST

HST 1 20580U 90037B 13265.69797480 .00001366 00000-0 84528-4 0 3374 2 20580 028.4710 353.4416 0003085 316.6558 173.1324 15.03937780 84393 ISS (ZARYA) 1 25544U 98067A 13266.36888580 .00008645 00000-0 15683-3 0 6574 2 25544 051.6507 341.7924 0003145 075.3715 046.5034 15.50444381849937 CXO 1 25867U 99040B 13268.42218902 .00000190 00000-0 00000+0 0 9548 2 25867 075.9700 333.8475 8457764 276.6937 000.2334 00.37802401 10910 ____________________________________________________________________ These 2-Line ...Continue Reading

[list_settings.list_name] Current TLEs

September 22nd 2013 PST

HST 1 20580U 90037B 13264.49715274 .00001353 00000-0 83567-4 0 3369 2 20580 028.4712 001.3169 0003029 304.1162 151.3976 15.03933978 84206 ISS (ZARYA) 1 25544U 98067A 13265.20238064 .00016360 00000-0 28959-3 0 6496 2 25544 051.6515 347.5776 0003291 071.1751 015.4881 15.50433690849757 CXO 1 25867U 99040B 13265.77999238 .00000031 00000-0 00000+0 0 9534 2 25867 075.9613 334.0002 8459582 276.7221 000.5064 00.37802349 10902 ____________________________________________________________________ These 2-Line ...Continue Reading

[list_settings.list_name] Current TLEs

September 21st 2013 PST

HST 1 20580U 90037B 13262.77895713 .00001143 00000-0 68758-4 0 3356 2 20580 028.4712 012.5848 0002958 284.7004 209.8934 15.03928939 83957 ISS (ZARYA) 1 25544U 98067A 13264.42713035 -.00033785 00000-0 -57859-3 0 6432 2 25544 051.6510 351.4215 0003289 070.2545 006.4709 15.50380774849632 CXO 1 25867U 99040B 13265.77999238 .00000031 00000-0 00000+0 0 9534 2 25867 075.9613 334.0002 8459582 276.7221 000.5064 00.37802349 10902 ____________________________________________________________________ These 2-Line ...Continue Reading

[list_settings.list_name] Current TLEs

September 20th 2013 PST

HST 1 20580U 90037B 13262.77895713 .00001143 00000-0 68758-4 0 3356 2 20580 028.4712 012.5848 0002958 284.7004 209.8934 15.03928939 83957 ISS (ZARYA) 1 25544U 98067A 13263.45453470 .00011468 00000-0 20592-3 0 6355 2 25544 051.6514 356.2364 0003046 068.1903 336.4614 15.50372272849487 CXO 1 25867U 99040B 13263.13584258 .00000029 00000-0 00000+0 0 9520 2 25867 075.9600 334.1143 8463291 276.7658 000.5228 00.37802915 10890 ____________________________________________________________________ These 2-Line ...Continue Reading

[list_settings.list_name] Current TLEs

September 19th 2013 PST

HST 1 20580U 90037B 13261.50953164 .00001110 00000-0 66409-4 0 3345 2 20580 028.4711 020.9097 0002888 270.2282 177.9651 15.03925883 83759 ISS (ZARYA) 1 25544U 98067A 13262.43109786 .00010383 00000-0 18740-3 0 6302 2 25544 051.6510 001.3101 0003072 066.5906 022.1731 15.50343443849324 CXO 1 25867U 99040B 13263.13584258 .00000029 00000-0 00000+0 0 9520 2 25867 075.9600 334.1143 8463291 276.7658 000.5228 00.37802915 10890 ____________________________________________________________________ These 2-Line ...Continue Reading

[list_settings.list_name] Current TLEs

September 18th 2013 PST

HST 1 20580U 90037B 13260.44368946 .00001400 00000-0 86970-4 0 3331 2 20580 028.4710 027.8994 0002845 257.9781 168.2295 15.03923206 83595 ISS (ZARYA) 1 25544U 98067A 13261.39769569 .00009792 00000-0 17735-3 0 6223 2 25544 051.6510 006.4328 0003019 063.5627 013.7697 15.50319421849167 CXO 1 25867U 99040B 13263.13584258 .00000029 00000-0 00000+0 0 9520 2 25867 075.9600 334.1143 8463291 276.7658 000.5228 00.37802915 10890 ____________________________________________________________________ These 2-Line ...Continue Reading

[list_settings.list_name] Current TLEs

September 17th 2013 PST

HST 1 20580U 90037B 13257.86746920 .00001482 00000-0 92760-4 0 3328 2 20580 028.4708 044.7946 0002803 227.9492 262.8049 15.03917152 83217 ISS (ZARYA) 1 25544U 98067A 13260.36449317 .00009176 00000-0 16683-3 0 6154 2 25544 051.6519 011.5556 0002842 060.9872 006.1171 15.50297142849003 CXO 1 25867U 99040B 13263.13584258 .00000029 00000-0 00000+0 0 9520 2 25867 075.9600 334.1143 8463291 276.7658 000.5228 00.37802915 10890 ____________________________________________________________________ These 2-Line ...Continue Reading

[list_settings.list_name] Current TLEs

September 16th 2013 PST

HST 1 20580U 90037B 13257.86746920 .00001482 00000-0 92760-4 0 3328 2 20580 028.4708 044.7946 0002803 227.9492 262.8049 15.03917152 83217 ISS (ZARYA) 1 25544U 98067A 13259.39774317 -.00015626 00000-0 -26389-3 0 6081 2 25544 051.6490 016.3471 0003151 052.3759 015.6936 15.50259157848853 CXO 1 25867U 99040B 13260.49038042 .00000245 00000-0 00000+0 0 9510 2 25867 075.9495 334.2519 8469801 276.7884 000.4433 00.37804427 10880 ____________________________________________________________________ These 2-Line ...Continue Reading
  • This mailing list is a public mailing list - anyone may join or leave, at any time.
  • This mailing list is announce-only.

International Space Station (ISS) / Hubble Space Telescope (HST) / Chandra X-Ray Observatory Orbital Data via EMAIL

Privacy Policy:

Private list